| time (UTC) | temp C | wind direction | speed KPH | gust KPH | rain 1hr cm | rain 24hr cm | rain mn cm | humidity % | barometer mb |
| 20260507075658 | 11 | 198 | 1.6 | 11.3 | 0.00 | 0.48 | 0.00 | 80 | 1010.4 |
| 20260507075201 | 11 | 238 | 3.2 | 8.0 | 0.00 | 0.48 | 0.00 | 79 | 1010.0 |
| 20260507074658 | 11 | 253 | 1.6 | 9.7 | 0.00 | 0.48 | 0.00 | 79 | 1010.0 |
| 20260507074201 | 11 | 267 | 4.8 | 9.7 | 0.00 | 0.48 | 0.00 | 79 | 1010.0 |
| 20260507073658 | 11 | 269 | 3.2 | 11.3 | 0.00 | 0.48 | 0.00 | 79 | 1010.0 |
| 20260507073158 | 11 | 246 | 1.6 | 8.0 | 0.00 | 0.48 | 0.00 | 80 | 1010.0 |
| 20260507072658 | 11 | 232 | 4.8 | 9.7 | 0.00 | 0.48 | 0.00 | 80 | 1010.0 |
| 20260507072158 | 11 | 250 | 4.8 | 11.3 | 0.00 | 0.48 | 0.00 | 80 | 1009.7 |
| 20260507071658 | 11 | 239 | 3.2 | 9.7 | 0.00 | 0.48 | 0.00 | 81 | 1009.7 |
| 20260507071201 | 11 | 248 | 3.2 | 12.9 | 0.00 | 0.48 | 0.00 | 81 | 1009.7 |
| 20260507070701 | 11 | 248 | 3.2 | 9.7 | 0.00 | 0.48 | 0.00 | 82 | 1009.7 |
| 20260507070201 | 11 | 248 | 3.2 | 9.7 | 0.00 | 0.48 | 0.00 | 81 | 1009.7 |
| 20260507065658 | 11 | 231 | 1.6 | 9.7 | 0.00 | 0.48 | 0.00 | 83 | 1009.7 |
| 20260507065201 | 11 | 194 | 4.8 | 11.3 | 0.00 | 0.48 | 0.00 | 83 | 1009.7 |
| 20260507064701 | 11 | 255 | 6.4 | 12.9 | 0.00 | 0.48 | 0.00 | 82 | 1009.7 |
| 20260507064158 | 11 | 225 | 4.8 | 12.9 | 0.00 | 0.48 | 0.00 | 83 | 1009.7 |
| 20260507063658 | 11 | 270 | 1.6 | 6.4 | 0.00 | 0.48 | 0.00 | 83 | 1009.7 |
| 20260507063158 | 11 | 325 | 3.2 | 4.8 | 0.00 | 0.48 | 0.00 | 84 | 1009.7 |
| 20260507062701 | 11 | 227 | 1.6 | 11.3 | 0.00 | 0.48 | 0.00 | 84 | 1009.7 |
| 20260507062158 | 10 | 207 | 3.2 | 12.9 | 0.00 | 0.48 | 0.00 | 85 | 1009.3 |
| 20260507061658 | 10 | 190 | 8.0 | 12.9 | 0.00 | 0.48 | 0.00 | 85 | 1009.3 |
| 20260507061201 | 10 | 228 | 0.0 | 9.7 | 0.00 | 0.48 | 0.00 | 86 | 1009.3 |
| 20260507060701 | 10 | 177 | 4.8 | 11.3 | 0.00 | 0.48 | 0.00 | 86 | 1009.3 |
| 20260507060207 | 10 | 180 | 4.8 | 14.5 | 0.00 | 0.48 | 0.00 | 86 | 1009.0 |
| 20260507055658 | 10 | 206 | 1.6 | 9.7 | 0.00 | 0.48 | 0.00 | 87 | 1009.0 |
| 20260507055158 | 10 | 282 | 1.6 | 6.4 | 0.00 | 0.48 | 0.00 | 87 | 1009.0 |
| 20260507054701 | 10 | 264 | 1.6 | 8.0 | 0.00 | 0.48 | 0.00 | 87 | 1009.0 |
| 20260507054201 | 10 | 160 | 3.2 | 8.0 | 0.00 | 0.48 | 0.00 | 86 | 1009.0 |
| 20260507053658 | 10 | 159 | 1.6 | 8.0 | 0.00 | 0.48 | 0.00 | 86 | 1009.0 |
| 20260507053158 | 10 | 258 | 1.6 | 11.3 | 0.00 | 0.48 | 0.00 | 86 | 1009.0 |
| 20260507052701 | 10 | 237 | 1.6 | 8.0 | 0.00 | 0.48 | 0.00 | 86 | 1009.0 |
| 20260507052158 | 10 | 219 | 3.2 | 9.7 | 0.00 | 0.48 | 0.00 | 85 | 1008.7 |
| 20260507051658 | 10 | 215 | 0.0 | 9.7 | 0.00 | 0.48 | 0.00 | 85 | 1008.7 |
| 20260507051201 | 10 | 196 | 4.8 | 9.7 | 0.00 | 0.48 | 0.00 | 84 | 1008.7 |
| 20260507050701 | 10 | 213 | 1.6 | 4.8 | 0.00 | 0.48 | 0.00 | 85 | 1008.7 |
| 20260507050201 | 10 | 264 | 0.0 | 4.8 | 0.00 | 0.48 | 0.00 | 85 | 1008.7 |
| 20260507045701 | 10 | 282 | 1.6 | 4.8 | 0.00 | 0.48 | 0.00 | 85 | 1008.7 |
| 20260507045201 | 10 | 301 | 3.2 | 6.4 | 0.00 | 0.48 | 0.00 | 85 | 1008.7 |
| 20260507044658 | 10 | 326 | 1.6 | 4.8 | 0.00 | 0.48 | 0.00 | 85 | 1008.7 |
| 20260507044202 | 10 | 257 | 1.6 | 6.4 | 0.00 | 0.48 | 0.00 | 85 | 1008.7 |
| 20260507043658 | 10 | 179 | 3.2 | 9.7 | 0.00 | 0.48 | 0.00 | 85 | 1008.3 |
| 20260507043201 | 10 | 226 | 1.6 | 8.0 | 0.00 | 0.48 | 0.00 | 85 | 1008.3 |
| 20260507042658 | 10 | 185 | 4.8 | 12.9 | 0.00 | 0.48 | 0.00 | 84 | 1008.3 |
| 20260507042158 | 10 | 237 | 1.6 | 8.0 | 0.00 | 0.48 | 0.00 | 85 | 1008.3 |
| 20260507041658 | 10 | 314 | 1.6 | 6.4 | 0.00 | 0.48 | 0.00 | 85 | 1008.3 |
| 20260507041158 | 10 | 208 | 3.2 | 11.3 | 0.00 | 0.48 | 0.00 | 85 | 1007.9 |
| 20260507040658 | 10 | 239 | 0.0 | 11.3 | 0.00 | 0.48 | 0.00 | 85 | 1007.9 |
| 20260507040158 | 10 | 215 | 1.6 | 9.7 | 0.00 | 0.48 | 0.00 | 84 | 1007.9 |
| 20260507035658 | 10 | 270 | 3.2 | 9.7 | 0.00 | 0.48 | 0.00 | 84 | 1007.9 |
| 20260507035158 | 10 | 232 | 3.2 | 12.9 | 0.00 | 0.48 | 0.00 | 84 | 1007.9 |
| 20260507034658 | 10 | 250 | 3.2 | 6.4 | 0.00 | 0.48 | 0.00 | 85 | 1007.9 |
| 20260507034201 | 10 | 243 | 1.6 | 8.0 | 0.00 | 0.48 | 0.00 | 85 | 1007.9 |
| 20260507033658 | 10 | 232 | 3.2 | 11.3 | 0.00 | 0.48 | 0.00 | 84 | 1007.9 |
| 20260507033201 | 10 | 237 | 3.2 | 9.7 | 0.00 | 0.48 | 0.00 | 84 | 1007.9 |
| 20260507032701 | 10 | 245 | 3.2 | 11.3 | 0.00 | 0.48 | 0.00 | 84 | 1007.9 |
| 20260507032201 | 10 | 233 | 3.2 | 9.7 | 0.00 | 0.48 | 0.00 | 85 | 1007.9 |
| 20260507031658 | 10 | 259 | 1.6 | 9.7 | 0.00 | 0.48 | 0.00 | 85 | 1007.9 |
| 20260507031158 | 10 | 284 | 1.6 | 8.0 | 0.00 | 0.48 | 0.00 | 86 | 1007.9 |
| 20260507030658 | 10 | 241 | 1.6 | 11.3 | 0.00 | 0.48 | 0.00 | 86 | 1007.6 |
| 20260507030158 | 10 | 285 | 3.2 | 8.0 | 0.00 | 0.48 | 0.00 | 86 | 1007.6 |
| 20260507025701 | 10 | 251 | 1.6 | 11.3 | 0.00 | 0.48 | 0.00 | 86 | 1007.6 |
| 20260507025204 | 10 | 205 | 1.6 | 14.5 | 0.00 | 0.48 | 0.00 | 87 | 1007.6 |
| 20260507024701 | 11 | 215 | 3.2 | 6.4 | 0.00 | 0.48 | 0.00 | 87 | 1007.6 |
| 20260507024158 | 11 | 259 | 1.6 | 8.0 | 0.00 | 0.48 | 0.00 | 87 | 1007.6 |
| 20260507023701 | 11 | 216 | 1.6 | 3.2 | 0.00 | 0.48 | 0.00 | 87 | 1007.6 |
| 20260507023158 | 11 | 239 | 1.6 | 4.8 | 0.00 | 0.48 | 0.00 | 87 | 1007.6 |
| 20260507022658 | 11 | 223 | 0.0 | 6.4 | 0.00 | 0.48 | 0.00 | 87 | 1007.6 |
| 20260507022201 | 11 | 200 | 1.6 | 8.0 | 0.00 | 0.48 | 0.00 | 87 | 1007.6 |
| 20260507021658 | 11 | 232 | 3.2 | 8.0 | 0.00 | 0.48 | 0.00 | 87 | 1007.6 |
| 20260507021158 | 11 | 260 | 3.2 | 9.7 | 0.00 | 0.48 | 0.00 | 87 | 1007.6 |
| 20260507020658 | 11 | 270 | 3.2 | 9.7 | 0.00 | 0.48 | 0.00 | 87 | 1007.6 |
| 20260507020158 | 11 | 255 | 1.6 | 11.3 | 0.00 | 0.48 | 0.00 | 87 | 1007.6 |
| 20260507015701 | 11 | 282 | 3.2 | 6.4 | 0.00 | 0.48 | 0.00 | 87 | 1007.6 |
| 20260507015201 | 11 | 265 | 1.6 | 8.0 | 0.00 | 0.48 | 0.00 | 87 | 1007.6 |
| 20260507014658 | 11 | 246 | 3.2 | 11.3 | 0.00 | 0.48 | 0.00 | 87 | 1007.6 |
| 20260507014158 | 11 | 254 | 3.2 | 9.7 | 0.00 | 0.48 | 0.00 | 86 | 1007.6 |
| 20260507013658 | 11 | 246 | 1.6 | 11.3 | 0.00 | 0.48 | 0.00 | 86 | 1007.2 |
| 20260507013158 | 11 | 299 | 1.6 | 11.3 | 0.00 | 0.48 | 0.00 | 86 | 1007.2 |
| 20260507012704 | 11 | 251 | 0.0 | 8.0 | 0.00 | 0.48 | 0.00 | 86 | 1007.2 |
| 20260507012201 | 11 | 241 | 3.2 | 14.5 | 0.00 | 0.48 | 0.00 | 86 | 1007.2 |
| 20260507011658 | 11 | 252 | 4.8 | 12.9 | 0.00 | 0.48 | 0.00 | 86 | 1007.2 |
| 20260507010658 | 11 | 262 | 3.2 | 9.7 | 0.03 | 0.48 | 0.00 | 87 | 1007.2 |
| 20260507010158 | 11 | 249 | 3.2 | 11.3 | 0.03 | 0.48 | 0.00 | 87 | 1007.2 |
| 20260507005701 | 11 | 263 | 6.4 | 11.3 | 0.03 | 0.48 | 0.00 | 87 | 1007.2 |
| 20260507005204 | 11 | 267 | 1.6 | 6.4 | 0.03 | 0.48 | 0.00 | 87 | 1007.2 |
| 20260507004658 | 11 | 215 | 1.6 | 9.7 | 0.03 | 0.48 | 0.00 | 87 | 1007.2 |
| 20260507004201 | 11 | 260 | 3.2 | 9.7 | 0.05 | 0.48 | 0.00 | 87 | 1007.2 |
| 20260507003658 | 11 | 252 | 1.6 | 8.0 | 0.05 | 0.48 | 0.00 | 87 | 1007.2 |
| 20260507003207 | 11 | 222 | 1.6 | 6.4 | 0.05 | 0.48 | 0.00 | 87 | 1007.2 |
| 20260507002658 | 11 | 313 | 1.6 | 6.4 | 0.05 | 0.48 | 0.00 | 87 | 1007.2 |
| 20260507002158 | 11 | 266 | 1.6 | 8.0 | 0.03 | 0.46 | 0.00 | 87 | 1007.2 |
| 20260507001658 | 12 | 237 | 1.6 | 8.0 | 0.03 | 0.46 | 0.00 | 87 | 1007.2 |
| 20260507001204 | 12 | 196 | 0.0 | 8.0 | 0.03 | 0.46 | 0.00 | 86 | 1007.2 |
| 20260507000658 | 12 | 251 | 3.2 | 9.7 | 0.00 | 0.46 | 0.00 | 86 | 1007.2 |
| 20260507000205 | 12 | 249 | 1.6 | 9.7 | 0.00 | 0.46 | 0.00 | 86 | 1006.9 |
| 20260506235658 | 12 | 247 | 3.2 | 9.7 | 0.00 | 0.46 | 0.00 | 85 | 1007.2 |
| 20260506235204 | 12 | 246 | 1.6 | 8.0 | 0.00 | 0.43 | 0.00 | 85 | 1007.2 |
| 20260506234658 | 12 | 272 | 1.6 | 8.0 | 0.00 | 0.43 | 0.00 | 85 | 1007.2 |
| 20260506234201 | 12 | 205 | 3.2 | 8.0 | 0.00 | 0.43 | 0.00 | 84 | 1007.2 |
| 20260506233658 | 12 | 188 | 3.2 | 8.0 | 0.00 | 0.43 | 0.00 | 84 | 1007.2 |
| 20260506233204 | 12 | 232 | 1.6 | 3.2 | 0.00 | 0.43 | 0.00 | 84 | 1007.2 |
| 20260506232658 | 12 | 251 | 0.0 | 8.0 | 0.00 | 0.43 | 0.00 | 84 | 1006.9 |
| 20260506232204 | 12 | 254 | 1.6 | 8.0 | 0.00 | 0.43 | 0.00 | 84 | 1006.9 |
| 20260506231701 | 12 | 268 | 1.6 | 6.4 | 0.00 | 0.43 | 0.00 | 84 | 1006.9 |
| 20260506231158 | 12 | 197 | 1.6 | 4.8 | 0.00 | 0.43 | 0.00 | 84 | 1006.9 |
| 20260506230704 | 12 | 255 | 0.0 | 8.0 | 0.00 | 0.43 | 0.00 | 84 | 1006.9 |
| 20260506230204 | 12 | 243 | 1.6 | 8.0 | 0.00 | 0.43 | 0.00 | 84 | 1006.9 |
| 20260506225701 | 12 | 229 | 1.6 | 6.4 | 0.00 | 0.43 | 0.00 | 84 | 1006.9 |
| 20260506225201 | 12 | 258 | 1.6 | 6.4 | 0.00 | 0.43 | 0.00 | 84 | 1006.9 |
| 20260506224658 | 12 | 263 | 1.6 | 6.4 | 0.00 | 0.43 | 0.00 | 85 | 1006.9 |
| 20260506224204 | 12 | 251 | 1.6 | 9.7 | 0.00 | 0.43 | 0.00 | 85 | 1006.9 |
| 20260506223704 | 12 | 186 | 1.6 | 6.4 | 0.00 | 0.43 | 0.00 | 85 | 1006.9 |
| 20260506223204 | 12 | 238 | 1.6 | 9.7 | 0.00 | 0.43 | 0.00 | 85 | 1006.6 |
| 20260506222658 | 12 | 251 | 0.0 | 8.0 | 0.00 | 0.43 | 0.00 | 85 | 1006.6 |
| 20260506222201 | 12 | 236 | 1.6 | 8.0 | 0.00 | 0.43 | 0.00 | 86 | 1006.6 |
| 20260506221704 | 12 | 190 | 3.2 | 8.0 | 0.00 | 0.43 | 0.00 | 85 | 1006.9 |
| 20260506221207 | 12 | 234 | 0.0 | 4.8 | 0.00 | 0.43 | 0.00 | 86 | 1006.9 |
| 20260506220704 | 12 | 257 | 0.0 | 6.4 | 0.00 | 0.43 | 0.00 | 85 | 1006.6 |
| 20260506220201 | 12 | 184 | 3.2 | 8.0 | 0.00 | 0.43 | 0.00 | 85 | 1006.6 |
| 20260506215701 | 12 | 174 | 1.6 | 12.9 | 0.00 | 0.43 | 0.00 | 85 | 1006.6 |
| 20260506215158 | 12 | 282 | 1.6 | 9.7 | 0.00 | 0.43 | 0.00 | 85 | 1006.6 |
| 20260506214658 | 12 | 215 | 1.6 | 3.2 | 0.00 | 0.43 | 0.00 | 85 | 1006.6 |
| 20260506214158 | 12 | 234 | 1.6 | 6.4 | 0.00 | 0.43 | 0.00 | 85 | 1006.6 |
| 20260506213701 | 12 | 200 | 3.2 | 6.4 | 0.00 | 0.43 | 0.00 | 85 | 1006.6 |
| 20260506213201 | 12 | 128 | 1.6 | 4.8 | 0.00 | 0.43 | 0.00 | 85 | 1006.6 |
| 20260506212704 | 12 | 164 | 1.6 | 4.8 | 0.00 | 0.43 | 0.00 | 85 | 1006.9 |
| 20260506212158 | 12 | 185 | 3.2 | 4.8 | 0.00 | 0.43 | 0.00 | 85 | 1006.6 |
| 20260506211701 | 12 | 155 | 1.6 | 4.8 | 0.03 | 0.43 | 0.00 | 85 | 1006.6 |
| 20260506211158 | 12 | 143 | 1.6 | 3.2 | 0.03 | 0.43 | 0.00 | 85 | 1006.6 |
| 20260506210701 | 12 | 206 | 1.6 | 4.8 | 0.05 | 0.43 | 0.00 | 85 | 1006.2 |
| 20260506210204 | 12 | 204 | 1.6 | 6.4 | 0.05 | 0.43 | 0.00 | 85 | 1006.2 |
| 20260506205658 | 12 | 180 | 1.6 | 6.4 | 0.08 | 0.43 | 0.00 | 85 | 1006.2 |
| 20260506205201 | 12 | 209 | 1.6 | 4.8 | 0.08 | 0.43 | 0.00 | 86 | 1006.2 |
| 20260506204701 | 12 | 190 | 1.6 | 6.4 | 0.08 | 0.43 | 0.00 | 86 | 1006.2 |
| 20260506204158 | 12 | 184 | 3.2 | 6.4 | 0.08 | 0.43 | 0.00 | 85 | 1006.2 |
| 20260506203658 | 12 | 234 | 0.0 | 4.8 | 0.08 | 0.43 | 0.00 | 86 | 1006.2 |
| 20260506203158 | 12 | 235 | 1.6 | 4.8 | 0.08 | 0.43 | 0.00 | 86 | 1006.2 |
| 20260506202701 | 12 | 353 | 0.0 | 6.4 | 0.05 | 0.41 | 0.00 | 86 | 1006.2 |
| 20260506202201 | 12 | 186 | 3.2 | 6.4 | 0.05 | 0.41 | 0.00 | 85 | 1006.2 |
| 20260506201658 | 12 | 199 | 0.0 | 8.0 | 0.03 | 0.38 | 0.00 | 85 | 1006.2 |
| 20260506201201 | 12 | 194 | 1.6 | 8.0 | 0.03 | 0.38 | 0.00 | 85 | 1006.2 |
| 20260506200704 | 12 | 199 | 1.6 | 4.8 | 0.03 | 0.36 | 0.00 | 85 | 1006.2 |
| 20260506200201 | 12 | 278 | 1.6 | 3.2 | 0.00 | 0.36 | 0.00 | 84 | 1006.2 |
| 20260506195658 | 12 | 264 | 1.6 | 4.8 | 0.00 | 0.36 | 0.00 | 84 | 1006.2 |
| 20260506195201 | 12 | 186 | 1.6 | 8.0 | 0.00 | 0.33 | 0.00 | 83 | 1005.8 |
| 20260506194658 | 13 | 151 | 1.6 | 8.0 | 0.00 | 0.33 | 0.00 | 83 | 1005.8 |
| 20260506194201 | 13 | 173 | 3.2 | 4.8 | 0.00 | 0.33 | 0.00 | 82 | 1005.8 |
| 20260506193701 | 13 | 250 | 1.6 | 4.8 | 0.00 | 0.33 | 0.00 | 83 | 1005.8 |
| 20260506193158 | 13 | 279 | 0.0 | 4.8 | 0.00 | 0.33 | 0.00 | 83 | 1005.5 |
| 20260506192701 | 13 | 308 | 0.0 | 4.8 | 0.00 | 0.33 | 0.00 | 84 | 1005.5 |
| 20260506192158 | 13 | 218 | 1.6 | 8.0 | 0.00 | 0.33 | 0.00 | 84 | 1005.5 |
| 20260506191658 | 13 | 194 | 4.8 | 9.7 | 0.00 | 0.33 | 0.00 | 85 | 1005.5 |
| 20260506191201 | 13 | 181 | 3.2 | 6.4 | 0.00 | 0.33 | 0.00 | 85 | 1005.5 |
| 20260506190704 | 13 | 152 | 1.6 | 6.4 | 0.00 | 0.33 | 0.00 | 85 | 1005.1 |
| 20260506190204 | 13 | 184 | 3.2 | 6.4 | 0.00 | 0.33 | 0.00 | 85 | 1005.1 |
| 20260506185701 | 13 | 179 | 4.8 | 6.4 | 0.00 | 0.33 | 0.00 | 85 | 1005.1 |
| 20260506185158 | 13 | 207 | 1.6 | 3.2 | 0.00 | 0.33 | 0.00 | 86 | 1005.1 |
| 20260506184658 | 13 | 146 | 1.6 | 3.2 | 0.00 | 0.33 | 0.00 | 86 | 1004.8 |
| 20260506184201 | 13 | 288 | 0.0 | 4.8 | 0.00 | 0.33 | 0.00 | 85 | 1004.8 |
| 20260506183704 | 13 | 297 | 1.6 | 4.8 | 0.00 | 0.33 | 0.00 | 85 | 1004.5 |
| 20260506183204 | 13 | 309 | 1.6 | 3.2 | 0.00 | 0.33 | 0.00 | 84 | 1004.5 |
| 20260506182658 | 13 | 292 | 1.6 | 3.2 | 0.00 | 0.33 | 0.00 | 84 | 1004.5 |
| 20260506182204 | 13 | 210 | 1.6 | 3.2 | 0.00 | 0.33 | 0.00 | 84 | 1004.5 |
| 20260506181707 | 13 | 189 | 1.6 | 3.2 | 0.00 | 0.33 | 0.00 | 84 | 1004.5 |
| 20260506181158 | 13 | 272 | 1.6 | 3.2 | 0.00 | 0.33 | 0.00 | 84 | 1004.5 |
| 20260506180701 | 14 | 252 | 0.0 | 1.6 | 0.03 | 0.33 | 0.00 | 85 | 1004.5 |
| 20260506180158 | 14 | 195 | 0.0 | 4.8 | 0.03 | 0.33 | 0.00 | 85 | 1004.5 |
| 20260506175701 | 14 | 281 | 1.6 | 8.0 | 0.05 | 0.33 | 0.00 | 85 | 1004.5 |
| 20260506175158 | 14 | 289 | 0.0 | 6.4 | 0.05 | 0.33 | 0.00 | 85 | 1004.5 |
| 20260506174704 | 14 | 318 | 1.6 | 4.8 | 0.08 | 0.36 | 0.00 | 85 | 1004.5 |
| 20260506174201 | 14 | 271 | 0.0 | 3.2 | 0.13 | 0.36 | 0.00 | 85 | 1004.5 |
| 20260506173658 | 14 | 260 | 0.0 | 1.6 | 0.15 | 0.36 | 0.00 | 84 | 1004.5 |
| 20260506173158 | 15 | 197 | 0.0 | 1.6 | 0.15 | 0.41 | 0.00 | 85 | 1004.5 |
| 20260506172658 | 14 | 232 | 0.0 | 1.6 | 0.15 | 0.43 | 0.00 | 85 | 1004.1 |
| 20260506172201 | 15 | 246 | 0.0 | 1.6 | 0.20 | 0.46 | 0.00 | 85 | 1004.1 |
| 20260506171658 | 14 | 19 | 0.0 | 3.2 | 0.25 | 0.51 | 0.00 | 84 | 1004.1 |
| 20260506171158 | 14 | 309 | 1.6 | 3.2 | 0.28 | 0.53 | 0.00 | 83 | 1004.1 |
| 20260506170701 | 15 | 241 | 0.0 | 3.2 | 0.25 | 0.66 | 0.00 | 83 | 1004.1 |
| 20260506170201 | 15 | 255 | 0.0 | 14.5 | 0.25 | 0.79 | 0.00 | 82 | 1004.5 |
| 20260506165701 | 15 | 235 | 4.8 | 14.5 | 0.25 | 0.86 | 0.00 | 80 | 1004.5 |
| 20260506165158 | 15 | 269 | 1.6 | 8.0 | 0.25 | 0.86 | 0.00 | 80 | 1004.5 |
| 20260506164701 | 15 | 253 | 1.6 | 6.4 | 0.23 | 0.84 | 0.00 | 78 | 1004.5 |
| 20260506164201 | 16 | 257 | 1.6 | 3.2 | 0.20 | 0.81 | 0.00 | 77 | 1004.5 |
| 20260506163701 | 16 | 263 | 1.6 | 6.4 | 0.18 | 0.76 | 0.00 | 76 | 1004.5 |
| 20260506163158 | 16 | 200 | 1.6 | 6.4 | 0.18 | 0.76 | 0.00 | 71 | 1004.5 |
| 20260506162701 | 16 | 182 | 3.2 | 4.8 | 0.15 | 0.76 | 0.00 | 70 | 1004.5 |
| 20260506162158 | 16 | 191 | 1.6 | 3.2 | 0.13 | 0.71 | 0.00 | 68 | 1004.5 |
| 20260506161704 | 17 | 132 | 1.6 | 3.2 | 0.08 | 0.66 | 0.00 | 67 | 1004.5 |
| 20260506161158 | 17 | 128 | 1.6 | 4.8 | 0.05 | 0.64 | 0.00 | 64 | 1004.5 |
| 20260506160658 | 17 | 139 | 1.6 | 3.2 | 0.03 | 0.64 | 0.00 | 63 | 1004.1 |
| 20260506160201 | 18 | 206 | 1.6 | 1.6 | 0.03 | 0.61 | 0.00 | 58 | 1004.1 |
| 20260506155701 | 18 | 172 | 0.0 | 1.6 | 0.00 | 0.61 | 0.00 | 60 | 1004.1 |
| 20260506155201 | 18 | 341 | 0.0 | 3.2 | 0.00 | 0.61 | 0.00 | 58 | 1004.1 |
| 20260506154701 | 18 | 270 | 0.0 | 3.2 | 0.00 | 0.58 | 0.00 | 59 | 1004.1 |
| 20260506154158 | 19 | 305 | 0.0 | 4.8 | 0.00 | 0.58 | 0.00 | 53 | 1004.1 |
| 20260506153658 | 19 | 216 | 0.0 | 6.4 | 0.00 | 0.58 | 0.00 | 52 | 1004.1 |
| 20260506153158 | 19 | 278 | 1.6 | 6.4 | 0.00 | 0.58 | 0.00 | 49 | 1004.1 |
| 20260506152701 | 19 | 283 | 3.2 | 8.0 | 0.00 | 0.58 | 0.00 | 48 | 1004.1 |
| 20260506152204 | 19 | 320 | 3.2 | 6.4 | 0.00 | 0.58 | 0.00 | 48 | 1004.1 |
| 20260506151704 | 19 | 323 | 3.2 | 8.0 | 0.00 | 0.58 | 0.00 | 47 | 1004.1 |
| 20260506151158 | 19 | 322 | 3.2 | 6.4 | 0.00 | 0.58 | 0.00 | 47 | 1004.1 |
| 20260506150704 | 19 | 308 | 1.6 | 6.4 | 0.00 | 0.58 | 0.00 | 48 | 1004.1 |
| 20260506150204 | 19 | 282 | 1.6 | 8.0 | 0.00 | 0.58 | 0.00 | 47 | 1004.1 |
| 20260506145658 | 19 | 281 | 1.6 | 6.4 | 0.00 | 0.58 | 0.00 | 48 | 1004.1 |
| 20260506145201 | 19 | 275 | 0.0 | 8.0 | 0.00 | 0.58 | 0.00 | 49 | 1004.1 |
| 20260506144658 | 19 | 316 | 3.2 | 8.0 | 0.00 | 0.58 | 0.00 | 48 | 1004.1 |
| 20260506144158 | 19 | 239 | 3.2 | 8.0 | 0.00 | 0.58 | 0.00 | 48 | 1004.1 |
| 20260506143658 | 19 | 315 | 3.2 | 11.3 | 0.00 | 0.58 | 0.00 | 49 | 1004.1 |
| 20260506143158 | 19 | 305 | 4.8 | 8.0 | 0.00 | 0.58 | 0.00 | 48 | 1004.1 |
| 20260506142658 | 19 | 305 | 1.6 | 8.0 | 0.00 | 0.58 | 0.00 | 48 | 1004.1 |
| 20260506142158 | 19 | 290 | 3.2 | 9.7 | 0.00 | 0.58 | 0.00 | 47 | 1004.1 |
| 20260506141658 | 20 | 298 | 1.6 | 8.0 | 0.00 | 0.58 | 0.00 | 46 | 1004.5 |
| 20260506141158 | 20 | 299 | 1.6 | 6.4 | 0.00 | 0.58 | 0.00 | 46 | 1004.5 |
| 20260506140704 | 20 | 306 | 3.2 | 8.0 | 0.00 | 0.58 | 0.00 | 47 | 1004.5 |
| 20260506140207 | 20 | 311 | 3.2 | 9.7 | 0.00 | 0.58 | 0.00 | 47 | 1004.5 |
| 20260506135701 | 20 | 280 | 1.6 | 8.0 | 0.00 | 0.58 | 0.00 | 45 | 1004.5 |
| 20260506135201 | 20 | 295 | 1.6 | 6.4 | 0.00 | 0.58 | 0.00 | 44 | 1004.5 |
| 20260506134707 | 20 | 230 | 1.6 | 8.0 | 0.00 | 0.58 | 0.00 | 46 | 1004.5 |
| 20260506134158 | 20 | 153 | 4.8 | 8.0 | 0.00 | 0.58 | 0.00 | 45 | 1004.5 |
| 20260506133658 | 20 | 219 | 1.6 | 9.7 | 0.00 | 0.58 | 0.00 | 46 | 1004.5 |
| 20260506133158 | 20 | 111 | 1.6 | 6.4 | 0.00 | 0.58 | 0.00 | 45 | 1004.5 |
| 20260506132658 | 20 | 174 | 3.2 | 8.0 | 0.00 | 0.58 | 0.00 | 45 | 1004.8 |
| 20260506132201 | 20 | 171 | 3.2 | 8.0 | 0.00 | 0.58 | 0.00 | 46 | 1004.8 |
| 20260506131701 | 20 | 277 | 0.0 | 6.4 | 0.00 | 0.58 | 0.00 | 47 | 1004.8 |
| 20260506131158 | 19 | 314 | 3.2 | 6.4 | 0.00 | 0.58 | 0.00 | 47 | 1004.8 |
| 20260506130701 | 19 | 166 | 1.6 | 9.7 | 0.00 | 0.58 | 0.00 | 48 | 1004.8 |
| 20260506130201 | 19 | 222 | 0.0 | 6.4 | 0.00 | 0.58 | 0.00 | 48 | 1004.8 |
| 20260506125701 | 20 | 191 | 4.8 | 6.4 | 0.00 | 0.58 | 0.00 | 46 | 1004.8 |
| 20260506125158 | 20 | 315 | 1.6 | 4.8 | 0.00 | 0.58 | 0.00 | 47 | 1004.8 |
| 20260506124658 | 19 | 266 | 1.6 | 9.7 | 0.00 | 0.58 | 0.00 | 48 | 1005.1 |
| 20260506124158 | 18 | 124 | 3.2 | 11.3 | 0.00 | 0.58 | 0.00 | 49 | 1005.1 |
| 20260506123701 | 18 | 172 | 4.8 | 12.9 | 0.00 | 0.58 | 0.00 | 49 | 1005.1 |
| 20260506123207 | 20 | 178 | 6.4 | 12.9 | 0.00 | 0.58 | 0.00 | 45 | 1005.1 |
| 20260506122658 | 20 | 93 | 0.0 | 6.4 | 0.00 | 0.58 | 0.00 | 45 | 1005.1 |
| 20260506122158 | 20 | 219 | 1.6 | 4.8 | 0.00 | 0.58 | 0.00 | 45 | 1005.1 |
| 20260506121701 | 20 | 318 | 3.2 | 8.0 | 0.00 | 0.58 | 0.00 | 43 | 1005.1 |
| 20260506121204 | 20 | 172 | 1.6 | 6.4 | 0.00 | 0.58 | 0.00 | 45 | 1005.1 |
| 20260506120701 | 20 | 296 | 1.6 | 11.3 | 0.00 | 0.58 | 0.00 | 46 | 1005.1 |
| 20260506120201 | 20 | 128 | 4.8 | 9.7 | 0.00 | 0.58 | 0.00 | 45 | 1005.1 |
| 20260506115704 | 20 | 155 | 3.2 | 6.4 | 0.00 | 0.58 | 0.00 | 46 | 1005.1 |
| 20260506115158 | 19 | 191 | 1.6 | 8.0 | 0.00 | 0.58 | 0.00 | 48 | 1005.1 |
| 20260506114658 | 20 | 198 | 0.0 | 3.2 | 0.00 | 0.58 | 0.00 | 49 | 1005.1 |
| 20260506114201 | 19 | 242 | 1.6 | 6.4 | 0.00 | 0.58 | 0.00 | 49 | 1005.1 |
| 20260506113701 | 19 | 294 | 1.6 | 9.7 | 0.00 | 0.58 | 0.00 | 49 | 1005.1 |
| 20260506113204 | 19 | 288 | 3.2 | 9.7 | 0.00 | 0.58 | 0.00 | 48 | 1005.1 |
| 20260506112658 | 19 | 235 | 1.6 | 8.0 | 0.00 | 0.58 | 0.00 | 47 | 1005.1 |
| 20260506112158 | 19 | 284 | 1.6 | 9.7 | 0.00 | 0.58 | 0.00 | 48 | 1005.5 |
| 20260506111658 | 20 | 272 | 1.6 | 11.3 | 0.00 | 0.58 | 0.00 | 47 | 1005.5 |
| 20260506111158 | 20 | 239 | 3.2 | 8.0 | 0.00 | 0.58 | 0.00 | 45 | 1005.5 |
| 20260506110701 | 20 | 290 | 3.2 | 11.3 | 0.00 | 0.58 | 0.00 | 44 | 1005.5 |
| 20260506110158 | 20 | 180 | 3.2 | 9.7 | 0.00 | 0.58 | 0.00 | 45 | 1005.5 |
| 20260506105658 | 20 | 245 | 1.6 | 6.4 | 0.00 | 0.58 | 0.00 | 47 | 1005.5 |
| 20260506105204 | 20 | 267 | 1.6 | 4.8 | 0.00 | 0.58 | 0.00 | 48 | 1005.5 |
| 20260506104658 | 19 | 229 | 1.6 | 12.9 | 0.00 | 0.58 | 0.00 | 48 | 1005.5 |
| 20260506104201 | 20 | 221 | 3.2 | 9.7 | 0.00 | 0.58 | 0.00 | 49 | 1005.8 |
| 20260506103704 | 19 | 231 | 4.8 | 9.7 | 0.00 | 0.58 | 0.00 | 48 | 1005.8 |
| 20260506103158 | 18 | 230 | 1.6 | 9.7 | 0.00 | 0.58 | 0.00 | 51 | 1005.8 |
| 20260506102658 | 19 | 185 | 3.2 | 12.9 | 0.00 | 0.58 | 0.00 | 49 | 1005.8 |
| 20260506102158 | 18 | 168 | 6.4 | 12.9 | 0.00 | 0.58 | 0.00 | 49 | 1005.8 |
| 20260506101658 | 18 | 204 | 1.6 | 11.3 | 0.00 | 0.58 | 0.00 | 52 | 1005.8 |
| 20260506101204 | 17 | 222 | 1.6 | 14.5 | 0.00 | 0.58 | 0.00 | 55 | 1005.8 |
| 20260506100701 | 17 | 250 | 4.8 | 16.1 | 0.00 | 0.58 | 0.00 | 54 | 1005.8 |
| 20260506100158 | 17 | 243 | 1.6 | 11.3 | 0.00 | 0.58 | 0.00 | 55 | 1005.8 |
| 20260506095707 | 17 | 302 | 6.4 | 12.9 | 0.00 | 0.58 | 0.00 | 55 | 1005.8 |
| 20260506095158 | 17 | 261 | 1.6 | 11.3 | 0.00 | 0.58 | 0.00 | 58 | 1005.8 |
| 20260506094701 | 17 | 282 | 3.2 | 14.5 | 0.00 | 0.58 | 0.00 | 57 | 1005.8 |
| 20260506094158 | 17 | 293 | 4.8 | 14.5 | 0.00 | 0.58 | 0.00 | 56 | 1005.8 |
| 20260506093658 | 17 | 253 | 3.2 | 12.9 | 0.00 | 0.58 | 0.00 | 57 | 1005.8 |
| 20260506093201 | 17 | 254 | 3.2 | 12.9 | 0.00 | 0.58 | 0.00 | 58 | 1005.8 |
| 20260506092658 | 17 | 271 | 6.4 | 14.5 | 0.00 | 0.58 | 0.00 | 57 | 1005.8 |
| 20260506092201 | 17 | 280 | 6.4 | 11.3 | 0.00 | 0.58 | 0.00 | 56 | 1005.8 |
| 20260506091704 | 17 | 258 | 4.8 | 11.3 | 0.00 | 0.58 | 0.00 | 57 | 1005.8 |
| 20260506091158 | 17 | 260 | 4.8 | 12.9 | 0.00 | 0.58 | 0.00 | 56 | 1005.8 |
| 20260506090658 | 17 | 229 | 1.6 | 12.9 | 0.00 | 0.58 | 0.00 | 56 | 1005.8 |
| 20260506090158 | 17 | 252 | 3.2 | 11.3 | 0.00 | 0.58 | 0.00 | 54 | 1005.8 |
| 20260506085701 | 17 | 237 | 3.2 | 11.3 | 0.00 | 0.58 | 0.00 | 56 | 1005.8 |
| 20260506085158 | 17 | 241 | 3.2 | 11.3 | 0.00 | 0.58 | 0.00 | 57 | 1005.8 |
| 20260506084658 | 16 | 271 | 6.4 | 12.9 | 0.00 | 0.58 | 0.00 | 58 | 1005.8 |
| 20260506084158 | 17 | 281 | 3.2 | 12.9 | 0.00 | 0.58 | 0.00 | 59 | 1005.8 |
| 20260506083701 | 17 | 238 | 1.6 | 11.3 | 0.00 | 0.58 | 0.00 | 60 | 1005.8 |
| 20260506083158 | 16 | 256 | 3.2 | 11.3 | 0.00 | 0.58 | 0.00 | 62 | 1005.8 |
| 20260506082658 | 16 | 267 | 3.2 | 11.3 | 0.00 | 0.58 | 0.00 | 63 | 1005.8 |
| 20260506082204 | 16 | 264 | 1.6 | 11.3 | 0.00 | 0.58 | 0.00 | 62 | 1005.8 |
| 20260506081658 | 16 | 180 | 3.2 | 11.3 | 0.00 | 0.58 | 0.00 | 61 | 1005.8 |
| 20260506081158 | 16 | 301 | 1.6 | 14.5 | 0.00 | 0.58 | 0.00 | 61 | 1005.8 |
| 20260506080704 | 16 | 180 | 8.0 | 14.5 | 0.00 | 0.58 | 0.00 | 62 | 1005.8 |
| 20260506080158 | 16 | 199 | 3.2 | 11.3 | 0.00 | 0.58 | 0.00 | 61 | 1005.5 |